[[[{"header":{"parameterUnit":"kt","parameterCategory":2,"dx":1,"dy":1,"la1":30.253999710083008,"la2":30.299108505249023,"lo1":-89.0895004272461,"lo2":-89.04439544677734,"nx":28,"ny":28,"refTime":"2022-10-06T21:00:00:Z","depth":"0","parameterNumber":2,"parameterNumberName":"U-component_of_CURRENTS"},"data":[0.336,0.3288,0.3283,0.3169,0.3133,0.3044,0.3028,0.2956,0.2911,0.2759,0.267,0.264,0.2918,0.3138,0.3251,0.3238,0.2893,0.2611,0.2529,0.322,0.3256,0.3291,0.3223,0.293,0.2929,0.1806,0.1797,0.1789,0.3429,0.34,0.3357,0.3295,0.3235,0.3259,0.3215,0.317,0.3089,0.3018,0.296,0.3031,0.3241,0.3465,0.3764,0.3655,0.3527,0.3502,0.3137,0.3134,0.3913,0.3867,0.3707,0.3707,0.3707,0.3707,0.3707,0.3708,0.3536,0.3503,0.3471,0.3431,0.339,0.3356,0.3317,0.3296,0.325,0.3169,0.3205,0.3161,0.3401,0.3717,0.3824,0.3975,0.3808,0.3986,0.3808,0.3496,0.3363,0.4093,0.4044,0.4044,0.4044,0.4045,0.4045,0,0.3609,0.3608,0.3591,0.3544,0.3509,0.3487,0.3461,0.3436,0.3454,0.3419,0.3376,0.3386,0.3547,0.3693,0.3909,0.407,0.3967,0.4226,0.413,0.3961,0.3542,0.3511,0.4352,0.4305,0.4307,0.4308,0.4309,0.431,0.3698,0.3677,0.3672,0.3648,0.3646,0.3628,0.36,0.3631,0.3608,0.3601,0.3569,0.3612,0.3626,0.3818,0.4041,0.424,0.4089,0.427,0.4338,0.419,0.4044,0.3718,0.3671,0.433,0.4328,0.4325,0.4324,0,0.3742,0.376,0.3736,0.375,0.3745,0.3723,0.3718,0.3693,0.3722,0.3683,0.3686,0.3741,0.382,0.3974,0.4173,0.4264,0.4238,0.4433,0.4366,0.4387,0.4261,0.4103,0.3613,0.3536,0.441,0.4407,0.4405,0,0.3819,0.3803,0.3833,0.3822,0.3783,0.3829,0.3788,0.3803,0.3819,0.379,0.3872,0.386,0.404,0.4112,0.4275,0.4369,0.442,0.4495,0.4528,0.4516,0.4506,0.4486,0.4339,0.4638,0.4638,0.4638,0.4638,0,0.3904,0.3895,0.3866,0.3875,0.3901,0.3882,0.3892,0.3915,0.3911,0.3943,0.3935,0.4014,0.4052,0.4184,0.4334,0.4372,0.4469,0.4557,0.4546,0.454,0.4593,0.459,0.4396,0.4638,0.4638,0.4638,0.4638,0,0.3981,0.3983,0.3938,0.3967,0.3966,0.395,0.3963,0.3962,0.3993,0.4017,0.4046,0.4123,0.4172,0.4256,0.4385,0.4373,0.4473,0.456,0.4564,0.4548,0.4614,0.4598,0.4477,0.4375,0.4623,0.4623,0.4623,0,0.4083,0.4045,0.4074,0.404,0.4038,0.4099,0.4083,0.4109,0.414,0.415,0.4223,0.4266,0.4339,0.4371,0.4402,0.4541,0.4548,0.4536,0.4709,0.4713,0.4629,0.4507,0.4483,0.448,0.4621,0.4621,0.4621,0,0.4174,0.4198,0.4194,0.4207,0.4244,0.4245,0.4223,0.4243,0.4242,0.4276,0.4274,0.4349,0.4406,0.4458,0.454,0.4567,0.4547,0.4648,0.4656,0.4646,0.4619,0.4518,0.451,0.4609,0.461,0.461,0.462,0,0.4325,0.4311,0.428,0.4299,0.4307,0.429,0.4351,0.435,0.4391,0.4433,0.446,0.4546,0.4611,0.4628,0.4693,0.4695,0.4726,0.4797,0.486,0.4778,0.4792,0.4792,0.4842,0.4846,0.4849,0.4851,0,0,0.4442,0.441,0.4457,0.444,0.4453,0.4532,0.4506,0.4531,0.4584,0.4594,0.4629,0.4726,0.4802,0.4827,0.4805,0.4838,0.487,0.485,0.4812,0.4806,0.4802,0.4811,0.4808,0.4856,0.4857,0.4859,0.4859,0,0.4506,0.4516,0.4474,0.4499,0.4534,0.4575,0.4568,0.4621,0.4649,0.4651,0.4754,0.4789,0.4852,0.4913,0.4955,0.4874,0.4973,0.4894,0.4785,0.4835,0.4825,0.4818,0.4823,0.4818,0.4867,0.4866,0.4866,0,0.4619,0.4641,0.4624,0.4639,0.4665,0.4661,0.4744,0.4737,0.474,0.486,0.4862,0.4931,0.5025,0.5028,0.504,0.5068,0.5049,0.5059,0.5045,0.5059,0.5118,0.5106,0.5095,0.5233,0.5233,0.5234,0,0,0.4676,0.4652,0.4707,0.466,0.4669,0.4734,0.4741,0.4786,0.4829,0.4848,0.4914,0.4982,0.5037,0.5054,0.5117,0.51,0.516,0.5096,0.5079,0.5065,0.507,0.5123,0.5112,0.5236,0.5236,0.5236,0,0,0.4706,0.4751,0.4786,0.4735,0.4764,0.4824,0.4802,0.4853,0.4887,0.4898,0.5006,0.5028,0.5048,0.5104,0.5118,0.5135,0.5215,0.5213,0.5075,0.5055,0.5038,0.5032,0.5234,0,0,0,0,0,0.4806,0.4744,0.4774,0.4774,0.4799,0.4805,0.4812,0.4874,0.4915,0.4898,0.4962,0.5042,0.5134,0.5148,0.5164,0.5135,0.5262,0.5257,0.5253,0.5076,0.5054,0.5035,0,0,0,0,0,0,0.4806,0.4804,0.4777,0.4829,0.4836,0.4807,0.4891,0.4907,0.4919,0.4929,0.5024,0.5045,0.5121,0.5147,0.516,0.513,0.523,0.526,0.5256,0.5253,0.5068,0.505,0.5035,0,0,0,0,0,0.4807,0.4806,0.4822,0.4832,0.4837,0.4907,0.4893,0.4907,0.4917,0.5021,0.5042,0.4963,0.5117,0.5135,0.5156,0.5122,0.5222,0.5226,0.5258,0.5254,0.5252,0.5059,0,0,0,0,0,0,0.4808,0.4825,0.4825,0.483,0.4853,0.4911,0.4919,0.4907,0.5011,0.5029,0.4966,0.4974,0.5114,0.5129,0.5142,0.5113,0.5215,0.522,0.5223,0.5255,0.5253,0.5251,0,0,0,0,0,0,0.4826,0.4828,0.4828,0.4851,0.486,0.4914,0.4921,0.4958,0.5013,0.4952,0.496,0.4969,0.5114,0.5124,0.5135,0.5189,0.521,0.5214,0.5217,0.5219,0.5253,0.5251,0,0,0,0,0,0,0.4829,0.4831,0.485,0.4857,0.4865,0.493,0.4952,0.4984,0.4995,0.4947,0.5002,0.5005,0.5109,0.512,0.5129,0.5179,0.5187,0.521,0.5213,0.5215,0.5217,0,0,0,0,0,0,0,0.4831,0.4795,0.4793,0.4862,0.4869,0.488,0.4882,0.4883,0.4995,0.4998,0.5001,0.5003,0.5185,0.519,0.5195,0.517,0,0,0.521,0.5212,0,0,0,0,0,0,0,0,0.4797,0.4796,0.4793,0.4794,0.4795,0.4881,0.4882,0.4883,0.4996,0.4998,0.5,0.5002,0.5187,0.519,0.5194,0,0,0,0,0,0,0,0,0,0,0,0,0,0,0,0.4793,0.4794,0,0.4881,0.4882,0.4883,0.4996,0.4998,0.5,0.5002,0.5188,0.5191,0.5194,0,0,0,0,0,0,0,0,0,0,0,0,0,0,0,0,0,0,0,0,0,0,0,0,0,0,0,0,0,0,0,0,0,0,0,0,0,0,0,0,0,0,0,0,0,0,0,0,0,0,0,0,0,0,0,0,0,0,0,0,0,0,0,0,0,0,0,0,0]}],[{"header":{"parameterUnit":"kt","parameterCategory":2,"dx":1,"dy":1,"la1":30.253999710083008,"la2":30.299108505249023,"lo1":-89.0895004272461,"lo2":-89.04439544677734,"nx":28,"ny":28,"refTime":"2022-10-06T21:00:00:Z","depth":"0","parameterNumber":3,"parameterNumberName":"V-component_of_CURRENTS"},"data":[-0.0244,-0.0232,-0.0201,-0.0146,-0.0106,-0.0028,0.0027,0.0134,0.0255,0.0479,0.0668,0.081,0.0994,0.0886,0.0978,0.1079,0.1781,0.1754,0.2201,0.1472,0.1459,0.1447,0.1448,0.1586,0.1587,0.3122,0.3135,0.3144,-0.0216,-0.0189,-0.0163,-0.0115,-0.0075,-0.004,0.0043,0.0104,0.0203,0.0352,0.0471,0.0699,0.0734,0.0779,0.0718,0.0841,0.1139,0.0998,0.1368,0.1665,0.077,0.0735,0.0723,0.0723,0.0723,0.0723,0.0723,0.0722,-0.0158,-0.0148,-0.0113,-0.0087,-0.0053,0.0003,0.004,0.0105,0.0189,0.0333,0.0418,0.0601,0.0675,0.0709,0.0688,0.0674,0.0976,0.0688,0.0892,0.1137,0.1445,0.0448,0.0454,0.0454,0.0455,0.0455,0.0455,0,-0.0121,-0.0095,-0.0073,-0.0045,-0.0022,0.0019,0.0062,0.0097,0.0196,0.0272,0.0407,0.0507,0.0628,0.0697,0.0708,0.0699,0.1,0.0675,0.0853,0.0966,0.1196,0.1515,0.0597,0.0648,0.065,0.0651,0.0652,0.0653,-0.0094,-0.0072,-0.0021,-0.0011,0.0006,0.0038,0.0062,0.0131,0.0176,0.0322,0.0369,0.0507,0.0613,0.0743,0.0751,0.0793,0.1047,0.0718,0.0668,0.0775,0.0965,0.121,0.1489,0.067,0.0668,0.0666,0.0664,0,-0.0094,-0.0052,-0.0016,0.003,0.0043,0.0061,0.0116,0.0152,0.022,0.0306,0.0338,0.0473,0.0596,0.0677,0.081,0.0779,0.1009,0.0824,0.075,0.0742,0.0769,0.0933,0.1342,0.1678,0.076,0.0758,0.0757,0,-0.0084,-0.0057,-0.0007,0.0011,0.0042,0.0084,0.0129,0.0169,0.0245,0.0306,0.0377,0.0454,0.0567,0.0658,0.0701,0.0749,0.0829,0.0734,0.0738,0.0706,0.0692,0.084,0.1003,0.0871,0.0871,0.087,0.087,0,-0.0109,-0.0041,-0.0002,0.0017,0.0073,0.0094,0.0122,0.0189,0.0228,0.0319,0.036,0.0467,0.0529,0.0605,0.0669,0.0654,0.0801,0.0791,0.0724,0.0716,0.0712,0.0698,0.091,0.0869,0.0869,0.0869,0.0869,0,-0.0102,-0.0067,-0.0011,0.0037,0.0053,0.0082,0.0137,0.0178,0.0259,0.0291,0.036,0.0405,0.0496,0.0479,0.061,0.0577,0.0607,0.0645,0.0649,0.0566,0.054,0.0561,0.0602,0.0752,0.0666,0.0664,0.0663,0,-0.0154,-0.0081,-0.0042,0.0009,0.0041,0.0069,0.0108,0.0154,0.0194,0.0254,0.0309,0.0372,0.037,0.04,0.0454,0.0524,0.0562,0.0504,0.0613,0.0616,0.0522,0.0565,0.053,0.0582,0.0644,0.0646,0.0647,0,-0.0182,-0.0099,-0.009,-0.007,-0.0012,0.0019,0.0063,0.0118,0.0149,0.02,0.0256,0.0326,0.0345,0.0379,0.0407,0.0458,0.0526,0.0462,0.0465,0.0483,0.0649,0.0549,0.0552,0.0557,0.0559,0.0562,0.0632,0,-0.0208,-0.0157,-0.0128,-0.0064,-0.0033,0.0005,0.0043,0.0072,0.009,0.0125,0.0196,0.0246,0.0309,0.0325,0.0339,0.0417,0.0412,0.0423,0.0419,0.0456,0.0478,0.049,0.0345,0.0345,0.0345,0.0345,0,0,-0.0273,-0.0195,-0.0148,-0.0105,-0.008,-0.0055,-0.002,0.0014,0.0075,0.01,0.0095,0.0205,0.0237,0.0317,0.0326,0.0342,0.0369,0.0343,0.0428,0.0437,0.0445,0.0469,0.048,0.0345,0.0345,0.0345,0.0345,0,-0.0272,-0.0219,-0.0167,-0.0134,-0.0084,-0.0056,-0.0048,0.0007,0.0029,0.008,0.0105,0.0151,0.022,0.0263,0.0292,0.0335,0.0359,0.0343,0.0359,0.0424,0.0433,0.0442,0.0466,0.0477,0.0344,0.0344,0.0344,0,-0.0308,-0.0255,-0.0219,-0.014,-0.0106,-0.0068,-0.006,-0.0015,0.0014,0.0042,0.0094,0.0128,0.0177,0.0234,0.0259,0.0254,0.0348,0.0313,0.0314,0.0321,0.0389,0.0399,0.0407,0.0295,0.0295,0.0294,0,0,-0.0316,-0.0254,-0.0196,-0.0138,-0.0118,-0.0076,-0.0048,-0.0028,0.0017,0.0036,0.0073,0.0114,0.0162,0.0188,0.0232,0.0284,0.0309,0.0306,0.0308,0.031,0.0318,0.0385,0.0395,0.0293,0.0293,0.0293,0,0,-0.0322,-0.0237,-0.0226,-0.015,-0.0111,-0.0051,-0.0022,-0.0009,0.0036,0.0036,0.0073,0.0086,0.014,0.0162,0.0146,0.023,0.0221,0.0226,0.0218,0.0221,0.0224,0.0222,0.0158,0,0,0,0,0,-0.0299,-0.0247,-0.0238,-0.0219,-0.0115,-0.0057,-0.0044,-0.001,-0.0013,0.0007,0.0042,0.0054,0.0161,0.0147,0.0162,0.0186,0.0282,0.0284,0.0286,0.0289,0.0292,0.0295,0,0,0,0,0,0,-0.0291,-0.0268,-0.024,-0.0176,-0.0153,-0.0058,-0.0055,-0.0045,-0.0014,-0.0012,0.0047,0.0056,0.0084,0.0142,0.0155,0.0177,0.0153,0.0283,0.0285,0.0286,0.029,0.0292,0.0295,0,0,0,0,0,-0.0285,-0.0266,-0.0105,-0.0177,-0.0157,-0.0101,-0.0056,-0.0047,-0.0023,0.0031,0.004,0.0001,0.0084,0.0096,0.015,0.0171,0.0145,0.015,0.0284,0.0285,0.0286,0.0291,0,0,0,0,0,0,-0.028,-0.0259,-0.0101,-0.0094,-0.0188,-0.0106,-0.009,-0.005,0.0019,0.0028,-0.0014,-0.0014,0.0084,0.0094,0.0103,0.0167,0.0138,0.0143,0.0146,0.0285,0.0286,0.0287,0,0,0,0,0,0,-0.027,-0.0254,-0.0097,-0.0113,-0.0108,-0.011,-0.0097,-0.0047,0.0019,-0.003,-0.0027,-0.0015,0.0067,0.0092,0.0099,0.0175,0.0133,0.0138,0.0141,0.0143,0.0286,0.0287,0,0,0,0,0,0,-0.0263,-0.0249,-0.0114,-0.011,-0.0106,-0.0025,-0.0067,0.0037,0.0009,-0.0033,0.0007,0.0006,0.0065,0.0073,0.0097,0.0169,0.0174,0.0133,0.0136,0.0138,0.014,0,0,0,0,0,0,0,-0.0257,-0.0353,-0.0142,-0.0108,-0.0104,-0.003,-0.0028,-0.0026,0.0009,0.0008,0.0008,0.0007,0.0109,0.0113,0.0118,0.0164,0,0,0.0133,0.0135,0,0,0,0,0,0,0,0,-0.0358,-0.0354,-0.0142,-0.014,-0.0139,-0.003,-0.0028,-0.0027,0.0009,0.0008,0.0008,0.0007,0.011,0.0114,0.0118,0,0,0,0,0,0,0,0,0,0,0,0,0,0,0,-0.0142,-0.014,0,-0.003,-0.0028,-0.0027,0.0009,0.0008,0.0008,0.0007,0.0111,0.0114,0.0117,0,0,0,0,0,0,0,0,0,0,0,0,0,0,0,0,0,0,0,0,0,0,0,0,0,0,0,0,0,0,0,0,0,0,0,0,0,0,0,0,0,0,0,0,0,0,0,0,0,0,0,0,0,0,0,0,0,0,0,0,0,0,0,0,0,0,0,0,0]}]],[[{"header":{"parameterUnit":"kt","parameterCategory":2,"dx":1,"dy":1,"la1":30.253999710083008,"la2":30.299108505249023,"lo1":-89.0895004272461,"lo2":-89.04439544677734,"nx":28,"ny":28,"refTime":"2022-10-06T21:00:00:Z","depth":"2","parameterNumber":2,"parameterNumberName":"U-component_of_CURRENTS"},"data":[-0.0769,-0.0718,-0.0706,-0.0573,-0.0525,-0.0434,-0.0381,-0.0463,-0.0521,-0.0637,-0.0681,-0.1059,-0.0993,-0.0873,-0.0873,-0.0737,-0.0667,-0.0658,-0.0842,-0.0742,-0.0743,-0.0711,-0.0604,0,0,0,0,0,-0.0825,-0.0819,-0.075,-0.0644,-0.0563,-0.0528,-0.041,-0.0406,-0.0437,-0.0542,-0.0713,-0.0729,-0.0967,-0.0919,-0.0771,-0.083,-0.0738,-0.0743,-0.065,-0.0654,-0.0656,-0.0582,-0.0628,-0.0627,-0.0627,-0.0626,0,0,-0.0922,-0.0887,-0.0827,-0.0726,-0.0643,-0.0539,-0.0461,-0.0404,-0.0369,-0.0398,-0.0488,-0.0631,-0.0711,-0.0902,-0.0955,-0.0814,-0.0861,-0.0827,-0.0823,-0.0821,-0.0761,-0.0753,-0.0851,-0.0852,-0.0853,-0.0853,-0.0854,0,-0.0984,-0.0958,-0.0887,-0.0793,-0.0693,-0.0582,-0.0457,-0.0403,-0.0272,-0.0268,-0.0298,-0.0403,-0.0522,-0.0666,-0.0829,-0.0895,-0.0752,-0.0826,-0.0869,-0.0643,-0.0634,-0.0672,-0.0667,-0.0717,-0.0717,-0.0717,-0.0717,-0.0717,-0.1058,-0.1006,-0.0885,-0.0825,-0.0752,-0.0625,-0.0536,-0.0408,-0.033,-0.024,-0.0205,-0.0218,-0.032,-0.0541,-0.0591,-0.0776,-0.0779,-0.0822,-0.0744,-0.0761,-0.0804,-0.0795,-0.0787,-0.0718,-0.0718,-0.0718,-0.0718,0,-0.109,-0.104,-0.0926,-0.0798,-0.0752,-0.0661,-0.0505,-0.0421,-0.032,-0.0218,-0.0169,-0.0116,-0.0191,-0.0263,-0.042,-0.0492,-0.0652,-0.0743,-0.0671,-0.0708,-0.0781,-0.0775,-0.0863,-0.0865,-0.0867,-0.0868,-0.087,0,-0.1117,-0.1029,-0.0941,-0.0881,-0.0764,-0.0669,-0.0542,-0.0454,-0.034,-0.0258,-0.0174,-0.0147,-0.0136,-0.0214,-0.0329,-0.0487,-0.0479,-0.0601,-0.0653,-0.0581,-0.058,-0.0597,-0.0597,-0.058,-0.0579,-0.0577,-0.0576,0,-0.1172,-0.1035,-0.0952,-0.09,-0.0763,-0.0689,-0.061,-0.0494,-0.0418,-0.0294,-0.0235,-0.0175,-0.0142,-0.0222,-0.033,-0.0307,-0.0475,-0.0474,-0.0617,-0.0623,-0.0608,-0.0611,-0.0575,-0.0575,-0.0574,-0.0574,-0.0573,0,-0.1178,-0.1118,-0.1005,-0.0874,-0.0831,-0.0756,-0.0618,-0.0539,-0.0433,-0.0368,-0.0279,-0.0239,-0.0199,-0.0231,-0.0301,-0.0263,-0.0364,-0.0439,-0.0448,-0.0499,-0.0569,-0.0621,-0.0618,-0.0594,-0.0593,-0.0592,-0.0591,0,-0.1241,-0.1142,-0.1096,-0.0965,-0.0888,-0.0812,-0.0737,-0.0643,-0.0567,-0.0473,-0.0433,-0.0343,-0.0341,-0.0291,-0.0308,-0.0354,-0.0406,-0.0355,-0.0528,-0.0534,-0.0545,-0.0539,-0.0467,-0.0605,-0.0581,-0.0582,-0.0583,0,-0.1297,-0.1197,-0.1173,-0.111,-0.0996,-0.0935,-0.0845,-0.074,-0.0672,-0.0576,-0.0485,-0.0414,-0.0375,-0.0358,-0.0351,-0.0378,-0.04,-0.0413,-0.0417,-0.0468,-0.0498,-0.0525,-0.0536,-0.041,-0.041,-0.041,-0.0575,0,-0.1301,-0.1242,-0.1206,-0.1122,-0.1059,-0.0976,-0.0903,-0.0829,-0.0761,-0.07,-0.0594,-0.0553,-0.0476,-0.0479,-0.0467,-0.0434,-0.0476,-0.0494,-0.0519,-0.0495,-0.0578,-0.0584,-0.0536,-0.0538,-0.0539,-0.054,0,0,-0.1349,-0.1301,-0.1273,-0.1209,-0.1145,-0.1084,-0.1005,-0.0951,-0.0827,-0.0774,-0.0757,-0.0631,-0.0605,-0.0541,-0.0517,-0.0523,-0.0562,-0.0503,-0.0513,-0.051,-0.0507,-0.0582,-0.0587,-0.0542,-0.0543,-0.0543,-0.0544,0,-0.1358,-0.1332,-0.1301,-0.124,-0.1144,-0.1096,-0.1068,-0.0959,-0.0901,-0.0804,-0.0771,-0.0709,-0.0631,-0.0604,-0.0588,-0.0542,-0.0576,-0.0542,-0.049,-0.0523,-0.0518,-0.0514,-0.0587,-0.059,-0.0547,-0.0546,-0.0546,0,-0.1379,-0.1346,-0.1333,-0.126,-0.1192,-0.1124,-0.1095,-0.1007,-0.0946,-0.091,-0.0794,-0.0755,-0.0733,-0.0665,-0.0634,-0.0654,-0.0612,-0.0599,-0.0594,-0.0575,-0.061,-0.0605,-0.06,-0.0661,-0.0661,-0.0661,0,0,-0.1381,-0.1363,-0.129,-0.1255,-0.1217,-0.1131,-0.1083,-0.1027,-0.0951,-0.0909,-0.0842,-0.0794,-0.0751,-0.0717,-0.0675,-0.0625,-0.0663,-0.0608,-0.0603,-0.0598,-0.0576,-0.0611,-0.0606,-0.0661,-0.0661,-0.0661,0,0,-0.1372,-0.1318,-0.1296,-0.1259,-0.1186,-0.1097,-0.1047,-0.1004,-0.0921,-0.0898,-0.085,-0.0831,-0.0749,-0.0752,-0.0752,-0.0681,-0.0712,-0.071,-0.0652,-0.0645,-0.064,-0.0618,-0.0742,0,0,0,0,0,-0.1349,-0.1334,-0.1315,-0.13,-0.1201,-0.1119,-0.11,-0.1019,-0.0991,-0.0951,-0.0886,-0.0872,-0.0749,-0.0747,-0.0734,-0.0697,-0.0658,-0.0658,-0.0659,-0.0573,-0.0566,-0.0561,0,0,0,0,0,0,-0.1343,-0.1328,-0.1315,-0.1236,-0.1211,-0.1121,-0.109,-0.1068,-0.0992,-0.098,-0.0886,-0.0872,-0.084,-0.0752,-0.0741,-0.0706,-0.0746,-0.0658,-0.0658,-0.0659,-0.0571,-0.0565,-0.0561,0,0,0,0,0,-0.1338,-0.1325,-0.1194,-0.1233,-0.1212,-0.1104,-0.109,-0.107,-0.0999,-0.0938,-0.0919,-0.0935,-0.0842,-0.0827,-0.0745,-0.0712,-0.0754,-0.075,-0.0658,-0.0658,-0.0659,-0.0568,0,0,0,0,0,0,-0.1333,-0.1301,-0.1186,-0.1175,-0.1226,-0.1104,-0.1086,-0.1073,-0.0959,-0.094,-0.099,-0.0983,-0.0844,-0.0832,-0.082,-0.0715,-0.0761,-0.0757,-0.0754,-0.0658,-0.0659,-0.0659,0,0,0,0,0,0,-0.1306,-0.1293,-0.1181,-0.1176,-0.1164,-0.1105,-0.1089,-0.1049,-0.096,-0.1018,-0.1008,-0.0989,-0.0866,-0.0835,-0.0826,-0.0765,-0.0766,-0.0762,-0.0759,-0.0757,-0.0659,-0.0659,0,0,0,0,0,0,-0.1299,-0.1287,-0.1179,-0.1169,-0.1158,-0.1029,-0.1068,-0.0973,-0.0946,-0.1025,-0.0942,-0.094,-0.0872,-0.086,-0.083,-0.0774,-0.0768,-0.0766,-0.0763,-0.0761,-0.076,0,0,0,0,0,0,0,-0.1292,-0.14,-0.1251,-0.1163,-0.1154,-0.1074,-0.1071,-0.1068,-0.0945,-0.0944,-0.0942,-0.0941,-0.079,-0.0786,-0.0781,-0.0782,0,0,-0.0766,-0.0764,0,0,0,0,0,0,0,0,-0.1402,-0.14,-0.1251,-0.1249,-0.1246,-0.1074,-0.1071,-0.1069,-0.0945,-0.0944,-0.0943,-0.0941,-0.0789,-0.0785,-0.0781,0,0,0,0,0,0,0,0,0,0,0,0,0,0,0,-0.1251,-0.1249,0,-0.1073,-0.1071,-0.1069,-0.0945,-0.0944,-0.0943,-0.0942,-0.0788,-0.0785,-0.0782,0,0,0,0,0,0,0,0,0,0,0,0,0,0,0,0,0,0,0,0,0,0,0,0,0,0,0,0,0,0,0,0,0,0,0,0,0,0,0,0,0,0,0,0,0,0,0,0,0,0,0,0,0,0,0,0,0,0,0,0,0,0,0,0,0,0,0,0,0]}],[{"header":{"parameterUnit":"kt","parameterCategory":2,"dx":1,"dy":1,"la1":30.253999710083008,"la2":30.299108505249023,"lo1":-89.0895004272461,"lo2":-89.04439544677734,"nx":28,"ny":28,"refTime":"2022-10-06T21:00:00:Z","depth":"2","parameterNumber":3,"parameterNumberName":"V-component_of_CURRENTS"},"data":[0.0263,0.0312,0.037,0.0426,0.049,0.0501,0.0493,0.0425,0.0332,0.0177,0.0079,0.0082,0.0115,0.0326,0.0651,0.0952,0.0903,0.1034,0.0928,0.0642,0.0613,0.0713,0.0764,0,0,0,0,0,0.027,0.0336,0.0411,0.0498,0.0529,0.0596,0.0585,0.054,0.0478,0.0417,0.0402,0.0235,0.0387,0.0403,0.1025,0.1314,0.1327,0.114,0.0948,0.0919,0.0892,0.0945,0.118,0.1181,0.1182,0.1183,0,0,0.0323,0.0357,0.0452,0.0524,0.0584,0.0607,0.0604,0.0609,0.0571,0.0505,0.0484,0.0386,0.0343,0.0623,0.081,0.1086,0.1065,0.0848,0.0828,0.0807,0.0864,0.0947,0.1074,0.1074,0.1074,0.1073,0.1073,0,0.0372,0.0416,0.0469,0.056,0.0604,0.0643,0.0664,0.0647,0.064,0.0598,0.0504,0.047,0.0608,0.0626,0.0785,0.081,0.0545,0.0629,0.0442,0.0459,0.0531,0.052,0.0509,0.0568,0.0564,0.0562,0.0561,0.0559,0.0436,0.0458,0.0557,0.0595,0.0624,0.0657,0.067,0.0686,0.0669,0.0606,0.0564,0.05,0.0438,0.039,0.0541,0.0588,0.0325,0.0541,0.055,0.0455,0.0448,0.0442,0.0437,0.0526,0.053,0.0534,0.0537,0,0.0467,0.0533,0.057,0.0632,0.0649,0.0658,0.0685,0.0673,0.0659,0.0609,0.0598,0.0491,0.0402,0.0319,0.0191,0.0248,0.0211,0.0257,0.0297,0.0309,0.0401,0.0404,0.0462,0.0469,0.0475,0.048,0.0484,0,0.0543,0.0549,0.0644,0.0652,0.0663,0.0677,0.066,0.0643,0.0608,0.0571,0.0523,0.0453,0.033,0.0251,0.0188,0.02,0.008,0.0235,0.0236,0.0222,0.0241,0.0018,0.002,-0.0003,-0.0003,-0.0004,-0.0004,0,0.0577,0.0624,0.065,0.0654,0.0677,0.0664,0.0661,0.0605,0.0583,0.0524,0.0503,0.0391,0.0338,0.0261,0.0179,0.0169,0.0065,0.0032,0.0203,0.0217,0.0203,0.0221,-0.0004,-0.0004,-0.0004,-0.0004,-0.0004,0,0.0619,0.0663,0.0686,0.0704,0.0704,0.0689,0.0636,0.061,0.0533,0.0506,0.0439,0.0387,0.029,0.0285,0.0159,0.0171,0.0152,0.0102,0.0101,0.0272,0.0271,0.0296,0.0326,0.0099,0.01,0.01,0.0101,0,0.0635,0.0684,0.0705,0.0696,0.0707,0.0683,0.0643,0.0601,0.0557,0.0503,0.0417,0.0356,0.0324,0.0296,0.0236,0.0149,0.0133,0.015,0.0081,0.0081,0.0267,0.0294,0.0297,0.0325,0.0107,0.0107,0.0106,0,0.0644,0.0717,0.0708,0.0718,0.0707,0.0707,0.0658,0.0617,0.0589,0.0525,0.0473,0.0355,0.034,0.0282,0.0221,0.0168,0.0147,0.0155,0.0152,0.0178,0.0082,0.0279,0.0294,0.0101,0.01,0.0099,0.0111,0,0.0693,0.0703,0.0713,0.0724,0.0715,0.0713,0.069,0.0658,0.0625,0.0595,0.0502,0.0417,0.0331,0.0288,0.0249,0.0174,0.0186,0.0152,0.0142,0.0126,0.0136,0.0132,0.0171,0.017,0.017,0.017,0,0,0.067,0.0706,0.0726,0.0739,0.0732,0.0722,0.072,0.0689,0.064,0.0609,0.0599,0.0441,0.0367,0.0255,0.0245,0.0204,0.0195,0.0192,0.0134,0.0131,0.0127,0.0136,0.0133,0.0169,0.0169,0.0169,0.0169,0,0.0699,0.0708,0.0728,0.0728,0.0736,0.0725,0.0727,0.0716,0.0685,0.0624,0.0566,0.0495,0.0375,0.0304,0.0251,0.0206,0.0176,0.0179,0.0183,0.0133,0.013,0.0127,0.0135,0.0132,0.0168,0.0168,0.0168,0,0.0698,0.0722,0.0727,0.0747,0.0741,0.0736,0.0734,0.0731,0.0703,0.0639,0.0561,0.0502,0.0408,0.0322,0.0276,0.0268,0.0166,0.0176,0.0177,0.0184,0.0132,0.0128,0.0125,0.0168,0.0168,0.0168,0,0,0.0711,0.0731,0.0746,0.0752,0.0756,0.0743,0.0735,0.0725,0.0685,0.0659,0.0587,0.0505,0.0426,0.037,0.03,0.0216,0.0203,0.0179,0.0178,0.0179,0.0186,0.0134,0.0131,0.0169,0.0169,0.0169,0,0,0.0713,0.0747,0.074,0.0756,0.0752,0.0747,0.0735,0.0724,0.0661,0.0646,0.0566,0.054,0.0451,0.0399,0.0421,0.0284,0.0282,0.0275,0.0315,0.0313,0.0313,0.0342,0.0373,0,0,0,0,0,0.0741,0.0752,0.0746,0.0749,0.0752,0.0756,0.075,0.0724,0.0711,0.0699,0.0626,0.0583,0.0395,0.0413,0.0389,0.0351,0.0181,0.0179,0.0177,0.0208,0.0208,0.0208,0,0,0,0,0,0,0.0743,0.0749,0.0745,0.0748,0.0748,0.0755,0.0736,0.0728,0.0711,0.0706,0.0601,0.0581,0.0523,0.0421,0.04,0.0365,0.038,0.018,0.0178,0.0177,0.0208,0.0208,0.0207,0,0,0,0,0,0.0744,0.0749,0.0766,0.0746,0.0746,0.072,0.0735,0.0728,0.0704,0.0623,0.0603,0.0685,0.0526,0.0501,0.0408,0.0376,0.0394,0.0386,0.0179,0.0177,0.0176,0.0208,0,0,0,0,0,0,0.0745,0.0725,0.0764,0.0762,0.0742,0.0717,0.0714,0.0728,0.0618,0.0604,0.0703,0.0699,0.0527,0.0508,0.0489,0.0384,0.0406,0.0398,0.0393,0.0178,0.0177,0.0176,0,0,0,0,0,0,0.0723,0.0724,0.0763,0.0759,0.0756,0.0714,0.0712,0.0636,0.0613,0.07,0.0697,0.0702,0.0526,0.0512,0.0498,0.0381,0.0414,0.0407,0.0402,0.0399,0.0177,0.0176,0,0,0,0,0,0,0.0722,0.0723,0.0759,0.0756,0.0753,0.0722,0.064,0.0621,0.0682,0.0702,0.068,0.0679,0.053,0.0515,0.0504,0.0394,0.0385,0.0414,0.0409,0.0405,0.0403,0,0,0,0,0,0,0,0.0721,0.073,0.0785,0.0754,0.0752,0.0744,0.0743,0.0741,0.0682,0.0681,0.068,0.0679,0.0457,0.0449,0.044,0.0405,0,0,0.0415,0.0411,0,0,0,0,0,0,0,0,0.0728,0.073,0.0785,0.0785,0.0785,0.0744,0.0743,0.0741,0.0681,0.0681,0.068,0.068,0.0454,0.0448,0.0441,0,0,0,0,0,0,0,0,0,0,0,0,0,0,0,0.0785,0.0785,0,0.0744,0.0743,0.0742,0.0681,0.0681,0.068,0.068,0.0453,0.0447,0.0442,0,0,0,0,0,0,0,0,0,0,0,0,0,0,0,0,0,0,0,0,0,0,0,0,0,0,0,0,0,0,0,0,0,0,0,0,0,0,0,0,0,0,0,0,0,0,0,0,0,0,0,0,0,0,0,0,0,0,0,0,0,0,0,0,0,0,0,0,0]}]],[[{"header":{"parameterUnit":"kt","parameterCategory":2,"dx":1,"dy":1,"la1":30.253999710083008,"la2":30.299108505249023,"lo1":-89.0895004272461,"lo2":-89.04439544677734,"nx":28,"ny":28,"refTime":"2022-10-06T21:00:00:Z","depth":"4","parameterNumber":2,"parameterNumberName":"U-component_of_CURRENTS"},"data":[-0.1216,-0.1288,-0.1288,-0.1142,-0.1136,-0.1088,-0.1146,-0.1243,-0.1091,-0.1339,-0.1246,-0.1562,-0.1465,-0.1608,-0.1492,-0.1529,-0.1917,-0.1817,-0.1814,-0.2577,-0.2626,-0.267,-0.2544,0,0,0,0,0,-0.13,-0.1288,-0.1409,-0.1482,-0.158,-0.1628,-0.1698,-0.1731,-0.1865,-0.1652,-0.1847,-0.1654,-0.1645,-0.1559,-0.155,-0.1728,-0.216,-0.1718,-0.2361,-0.2608,-0.2662,-0.2521,0,0,0,0,0,0,-0.1424,-0.1466,-0.1691,-0.1824,-0.1957,-0.1881,-0.1946,-0.181,-0.1866,-0.2179,-0.1907,-0.2022,-0.2214,-0.2135,-0.1992,-0.2087,-0.2134,-0.2275,-0.2343,-0.2397,-0.2226,-0.1964,-0.1535,0,0,0,0,0,-0.1447,-0.1714,-0.1814,-0.2026,-0.2169,-0.2191,-0.2222,-0.2252,-0.2375,-0.2739,-0.2505,-0.2589,-0.2486,-0.2514,-0.2574,-0.2456,-0.3171,-0.2913,-0.2946,-0.307,-0.2932,-0.2894,-0.2914,-0.2867,-0.2873,-0.2878,-0.288,0,-0.1516,-0.1662,-0.2016,-0.2125,-0.2255,-0.2409,-0.2447,-0.2653,-0.2651,-0.2899,-0.2888,-0.3132,-0.3224,-0.2943,-0.3107,-0.3078,-0.2985,-0.3051,-0.3183,-0.3019,-0.2967,-0.2973,-0.2977,-0.2924,-0.292,-0.2917,-0.2913,0,-0.1512,-0.171,-0.1907,-0.2125,-0.2205,-0.2332,-0.2523,-0.2587,-0.2924,-0.3103,-0.3309,-0.359,-0.3574,-0.3791,-0.3834,-0.3751,-0.3585,-0.3378,-0.3716,-0.3675,-0.3063,-0.3049,-0.2995,-0.2979,-0.2966,-0.2955,-0.2945,0,-0.1534,-0.1655,-0.1905,-0.1999,-0.214,-0.2266,-0.246,-0.2617,-0.2891,-0.3006,-0.3456,-0.3468,-0.3956,-0.4004,-0.3958,-0.3722,-0.3995,-0.3514,-0.3451,-0.3878,-0.3862,-0.3765,-0.3734,-0.4037,-0.4037,-0.4037,-0.4037,0,-0.1534,-0.1691,-0.186,-0.1924,-0.2089,-0.2238,-0.2312,-0.2557,-0.2696,-0.3109,-0.3292,-0.3603,-0.3839,-0.3905,-0.3899,-0.3958,-0.3939,-0.4007,-0.3509,-0.3473,-0.3754,-0.3723,-0.4038,-0.4038,-0.4038,-0.4038,-0.4038,0,-0.1553,-0.1597,-0.1803,-0.1934,-0.1982,-0.2116,-0.232,-0.2438,-0.275,-0.2886,-0.316,-0.3333,-0.3655,-0.3574,-0.3774,-0.3774,-0.3756,-0.3734,-0.3733,-0.32,-0.3062,-0.337,-0.3627,-0.3625,-0.3623,-0.3621,-0.3619,0,-0.1469,-0.1617,-0.1708,-0.1873,-0.1945,-0.2065,-0.2188,-0.2361,-0.2492,-0.2718,-0.2891,-0.3122,-0.3121,-0.3302,-0.3411,-0.3512,-0.3574,-0.3511,-0.3485,-0.348,-0.3084,-0.322,-0.3624,-0.3588,-0.3592,-0.3595,-0.3597,0,-0.1426,-0.1626,-0.167,-0.1741,-0.1864,-0.1927,-0.2082,-0.2242,-0.2375,-0.2532,-0.2741,-0.2907,-0.303,-0.3079,-0.3179,-0.3284,-0.3507,-0.3288,-0.3286,-0.3285,-0.3686,-0.3234,-0.3207,-0.3597,-0.3602,-0.3607,-0.3575,0,-0.1491,-0.1583,-0.1633,-0.1733,-0.1803,-0.1884,-0.1988,-0.2105,-0.2196,-0.2303,-0.2507,-0.2572,-0.2741,-0.2798,-0.2833,-0.309,-0.3029,-0.3008,-0.2944,-0.3121,-0.3068,-0.3087,-0.2785,-0.2779,-0.2774,-0.277,0,0,-0.1419,-0.1491,-0.1542,-0.1616,-0.168,-0.1756,-0.1835,-0.1925,-0.2064,-0.2164,-0.2143,-0.2371,-0.2413,-0.2624,-0.2722,-0.271,-0.2729,-0.2767,-0.3009,-0.3036,-0.3061,-0.3025,-0.3048,-0.2762,-0.276,-0.2758,-0.2757,0,-0.1414,-0.1452,-0.1507,-0.1574,-0.1683,-0.1725,-0.1766,-0.1889,-0.1967,-0.2082,-0.2129,-0.2254,-0.2343,-0.243,-0.247,-0.264,-0.2617,-0.2685,-0.2867,-0.2966,-0.3,-0.3029,-0.3001,-0.3025,-0.2745,-0.2746,-0.2746,0,-0.1369,-0.1404,-0.1441,-0.1511,-0.1595,-0.1671,-0.1697,-0.1802,-0.1885,-0.1882,-0.204,-0.2089,-0.2109,-0.2249,-0.2305,-0.227,-0.251,-0.2441,-0.2462,-0.2429,-0.2522,-0.256,-0.2595,-0.2161,-0.216,-0.2159,0,0,-0.1349,-0.1391,-0.1461,-0.1512,-0.1557,-0.1658,-0.1718,-0.1769,-0.1844,-0.1888,-0.1953,-0.201,-0.2071,-0.2136,-0.2148,-0.2283,-0.2232,-0.2381,-0.2409,-0.2432,-0.2413,-0.2511,-0.2547,-0.2156,-0.2156,-0.2156,0,0,-0.1348,-0.1418,-0.1449,-0.1492,-0.1571,-0.1659,-0.1729,-0.1781,-0.1865,-0.1895,-0.1916,-0.1928,-0.2044,-0.2021,-0.198,-0.2191,-0.2059,-0.2068,-0.2277,-0.231,-0.2337,-0.2313,-0.1945,0,0,0,0,0,-0.1383,-0.1403,-0.143,-0.1448,-0.1558,-0.164,-0.1661,-0.1742,-0.1793,-0.1831,-0.1891,-0.1881,-0.2,-0.1964,-0.1974,-0.2132,-0.2118,-0.2125,-0.2131,-0.2423,-0.2458,-0.2488,0,0,0,0,0,0,-0.139,-0.1406,-0.1431,-0.151,-0.1538,-0.1638,-0.1661,-0.1683,-0.1789,-0.1798,-0.1872,-0.188,-0.1875,-0.1958,-0.1968,-0.212,-0.1942,-0.212,-0.2126,-0.2131,-0.2435,-0.2464,-0.2489,0,0,0,0,0,-0.1396,-0.141,-0.1554,-0.1512,-0.1536,-0.165,-0.166,-0.168,-0.1775,-0.1799,-0.1813,-0.184,-0.1874,-0.1885,-0.1964,-0.2118,-0.1935,-0.1939,-0.2124,-0.2129,-0.2133,-0.2449,0,0,0,0,0,0,-0.1401,-0.1432,-0.1562,-0.1575,-0.1511,-0.1648,-0.1666,-0.1676,-0.177,-0.1787,-0.1758,-0.1763,-0.1873,-0.1882,-0.189,-0.2122,-0.193,-0.1933,-0.1936,-0.2128,-0.2131,-0.2134,0,0,0,0,0,0,-0.1427,-0.1441,-0.1569,-0.1562,-0.1574,-0.1646,-0.1662,-0.1696,-0.1768,-0.1722,-0.1731,-0.1759,-0.1845,-0.188,-0.1886,-0.1939,-0.1926,-0.1929,-0.1932,-0.1933,-0.2131,-0.2133,0,0,0,0,0,0,-0.1435,-0.1448,-0.1558,-0.1568,-0.1579,-0.1726,-0.1677,-0.1773,-0.18,-0.1715,-0.1802,-0.1802,-0.184,-0.1849,-0.1883,-0.1933,-0.1938,-0.1926,-0.1928,-0.193,-0.1931,0,0,0,0,0,0,0,-0.1443,-0.1322,-0.1491,-0.1573,-0.1583,-0.1695,-0.1698,-0.1701,-0.1801,-0.1801,-0.1802,-0.1802,-0.1906,-0.191,-0.1914,-0.1928,0,0,-0.1926,-0.1927,0,0,0,0,0,0,0,0,-0.132,-0.1322,-0.1491,-0.1494,-0.1497,-0.1695,-0.1698,-0.17,-0.1801,-0.1801,-0.1801,-0.1802,-0.1907,-0.191,-0.1913,0,0,0,0,0,0,0,0,0,0,0,0,0,0,0,-0.1492,-0.1494,0,-0.1695,-0.1697,-0.1699,-0.1801,-0.1801,-0.1801,-0.1802,-0.1908,-0.1911,-0.1913,0,0,0,0,0,0,0,0,0,0,0,0,0,0,0,0,0,0,0,0,0,0,0,0,0,0,0,0,0,0,0,0,0,0,0,0,0,0,0,0,0,0,0,0,0,0,0,0,0,0,0,0,0,0,0,0,0,0,0,0,0,0,0,0,0,0,0,0,0]}],[{"header":{"parameterUnit":"kt","parameterCategory":2,"dx":1,"dy":1,"la1":30.253999710083008,"la2":30.299108505249023,"lo1":-89.0895004272461,"lo2":-89.04439544677734,"nx":28,"ny":28,"refTime":"2022-10-06T21:00:00:Z","depth":"4","parameterNumber":3,"parameterNumberName":"V-component_of_CURRENTS"},"data":[-0.0469,-0.0589,-0.0614,-0.0772,-0.0864,-0.1011,-0.1093,-0.11,-0.1041,-0.1064,-0.0909,-0.0852,-0.0569,-0.0826,-0.0293,-0.0232,0.0317,0.012,0.0129,0.1026,0.1057,0.1084,0.0813,0,0,0,0,0,-0.0422,-0.0492,-0.0632,-0.0753,-0.0935,-0.0997,-0.1128,-0.1132,-0.1152,-0.1132,-0.1105,-0.0984,-0.0679,-0.0577,-0.0315,-0.0322,0.0354,0.0,0.0766,0.1045,0.1079,0.0804,0,0,0,0,0,0,-0.0361,-0.0454,-0.0552,-0.0677,-0.0861,-0.0976,-0.1016,-0.1045,-0.1083,-0.1101,-0.1124,-0.0987,-0.0821,-0.0459,-0.0241,0.0047,0.0318,0.0652,0.0705,0.0741,0.0459,0.0179,0.0075,0,0,0,0,0,-0.0297,-0.033,-0.0438,-0.0595,-0.0706,-0.0852,-0.0939,-0.0988,-0.1023,-0.1067,-0.1052,-0.086,-0.0696,-0.025,-0.0021,0.0376,0.0948,0.0931,0.0962,0.1212,0.1061,0.1105,0.1104,0.1207,0.1211,0.1214,0.1216,0,-0.0181,-0.0245,-0.0385,-0.0484,-0.0545,-0.0658,-0.0748,-0.078,-0.0843,-0.0926,-0.0941,-0.0766,-0.0617,-0.017,0.0221,0.0727,0.0795,0.1011,0.1274,0.1112,0.1152,0.1142,0.113,0.1243,0.1241,0.1239,0.1236,0,-0.0139,-0.0176,-0.0296,-0.0403,-0.0439,-0.052,-0.0636,-0.0723,-0.0728,-0.0805,-0.0738,-0.055,-0.0269,0.0074,0.0622,0.0855,0.1154,0.117,0.1201,0.1253,0.1192,0.1169,0.1288,0.1278,0.1269,0.1262,0.1256,0,-0.009,-0.0152,-0.0223,-0.0284,-0.0408,-0.0414,-0.0533,-0.0546,-0.0575,-0.0638,-0.0425,-0.0425,0.0158,0.0362,0.0726,0.0985,0.1164,0.1263,0.1312,0.1504,0.1483,0.1543,0.1523,0.1693,0.1691,0.1689,0.1688,0,-0.0027,-0.011,-0.0195,-0.022,-0.0312,-0.0348,-0.0375,-0.0396,-0.044,-0.0354,-0.0368,-0.0083,0.0088,0.0457,0.0793,0.0901,0.1196,0.14,0.1298,0.1277,0.1525,0.1508,0.1685,0.1685,0.1685,0.1684,0.1683,0,0.0012,-0.0062,-0.0145,-0.0229,-0.0245,-0.0271,-0.0335,-0.0345,-0.0312,-0.0284,-0.0178,-0.004,0.0216,0.0331,0.0787,0.0715,0.0967,0.115,0.1166,0.0869,0.0894,0.1241,0.1332,0.1328,0.1325,0.1321,0.1318,0,0.005,-0.0037,-0.0044,-0.0103,-0.0149,-0.0123,-0.015,-0.0131,-0.0109,-0.0094,0.0056,0.0127,0.0278,0.0358,0.0535,0.0792,0.0943,0.0797,0.1174,0.1182,0.0895,0.0909,0.1024,0.127,0.1276,0.1281,0.1284,0,0.0097,0.004,0.0047,0.0011,0.0009,-0.0004,-0.0008,-0.0003,-0.003,0.0084,0.008,0.0232,0.0326,0.0372,0.0492,0.0651,0.0871,0.0784,0.0794,0.089,0.1229,0.0894,0.0891,0.1001,0.1005,0.1009,0.125,0,0.0133,0.0103,0.0084,0.0055,0.0057,0.0042,0.0078,0.0096,0.0146,0.0188,0.0244,0.0353,0.0429,0.0479,0.0553,0.0684,0.0728,0.078,0.0827,0.0853,0.0948,0.0975,0.067,0.067,0.0671,0.0671,0,0,0.0198,0.0143,0.0157,0.0128,0.0128,0.0192,0.0165,0.0201,0.0263,0.0276,0.032,0.043,0.051,0.0565,0.0593,0.0621,0.0727,0.0654,0.081,0.0825,0.0839,0.0933,0.0957,0.0671,0.0672,0.0672,0.0672,0,0.0202,0.019,0.0156,0.0163,0.0187,0.0208,0.0212,0.0259,0.0293,0.0322,0.0394,0.046,0.0529,0.0588,0.0623,0.0623,0.0744,0.0654,0.064,0.0808,0.0822,0.0835,0.093,0.0952,0.0672,0.0672,0.0672,0,0.0241,0.0226,0.0216,0.0204,0.0234,0.0229,0.029,0.0307,0.0314,0.0401,0.0441,0.0502,0.0562,0.0606,0.0632,0.065,0.0775,0.0701,0.07,0.0678,0.0853,0.0867,0.088,0.0723,0.0723,0.0723,0,0,0.0245,0.0211,0.0232,0.0209,0.0217,0.0274,0.0296,0.0327,0.0368,0.0393,0.0456,0.0515,0.0559,0.0599,0.0632,0.0679,0.0753,0.0707,0.0705,0.0703,0.0681,0.0852,0.0865,0.0724,0.0724,0.0724,0,0,0.0259,0.0249,0.0271,0.0232,0.0261,0.0305,0.0319,0.036,0.0407,0.0422,0.0496,0.0513,0.0556,0.0593,0.0591,0.0666,0.0674,0.0676,0.0658,0.0655,0.0653,0.0617,0.0651,0,0,0,0,0,0.0283,0.0243,0.0262,0.0261,0.0277,0.029,0.03,0.0357,0.0398,0.0399,0.0456,0.0505,0.06,0.06,0.0616,0.0648,0.0731,0.0729,0.0728,0.0713,0.071,0.0708,0,0,0,0,0,0,0.0282,0.0276,0.0265,0.0296,0.0303,0.0291,0.0342,0.0357,0.0398,0.0407,0.0491,0.0506,0.0549,0.0597,0.061,0.064,0.0646,0.073,0.0729,0.0728,0.0712,0.071,0.0707,0,0,0,0,0,0.0282,0.0278,0.0273,0.03,0.0306,0.0375,0.0343,0.0356,0.0393,0.0464,0.0481,0.0437,0.0546,0.0563,0.0605,0.0633,0.0638,0.0642,0.073,0.0729,0.0728,0.0711,0,0,0,0,0,0,0.0283,0.0302,0.0278,0.0285,0.031,0.0378,0.0384,0.0355,0.045,0.0465,0.0411,0.0416,0.0545,0.0558,0.057,0.0627,0.0631,0.0636,0.0638,0.0729,0.0728,0.0728,0,0,0,0,0,0,0.0306,0.0306,0.0281,0.029,0.0298,0.0381,0.0385,0.0428,0.0451,0.0392,0.0399,0.0412,0.0537,0.0554,0.0564,0.0629,0.0626,0.063,0.0633,0.0635,0.0728,0.0728,0,0,0,0,0,0,0.0309,0.0309,0.0288,0.0294,0.0302,0.0383,0.0424,0.0442,0.0439,0.0387,0.0442,0.0444,0.0533,0.0544,0.0559,0.0619,0.0626,0.0626,0.0629,0.0631,0.0632,0,0,0,0,0,0,0,0.0311,0.0275,0.0238,0.0298,0.0305,0.0349,0.0351,0.0352,0.0439,0.0441,0.0442,0.0443,0.06,0.0605,0.061,0.0612,0,0,0.0625,0.0627,0,0,0,0,0,0,0,0,0.0279,0.0276,0.0238,0.024,0.0241,0.0349,0.0351,0.0352,0.0439,0.0441,0.0442,0.0443,0.0601,0.0605,0.0609,0,0,0,0,0,0,0,0,0,0,0,0,0,0,0,0.0238,0.0239,0,0.0349,0.0351,0.0352,0.044,0.0441,0.0442,0.0442,0.0602,0.0606,0.0609,0,0,0,0,0,0,0,0,0,0,0,0,0,0,0,0,0,0,0,0,0,0,0,0,0,0,0,0,0,0,0,0,0,0,0,0,0,0,0,0,0,0,0,0,0,0,0,0,0,0,0,0,0,0,0,0,0,0,0,0,0,0,0,0,0,0,0,0,0]}]]]